Aérodrome :
LOGIN :

S'inscrire | Disclaimer

   EN    FR    IT 

 










Légende :    VFR   VFR Marginal   IFR   IFR Intensif   IFR Très Intensif
Visi : 
Plafond : 
>= 8 km
>= 3000ft
5 à 8 km
1000 à 3000 ft
1500m à 5 km
500 à 1000 ft
800 à 1500m
200 à 500 ft
< 800m
< 200 ft
Symboles :   Orages  Brouillard  Fortes neiges  Fortes précipitations  Vent > 20 kt
SIGMETs :   Divers  Orages  Givrage  Turbulence  Onde Orograph.  Cendres Volcan.






- Altitude de l'aérodrome : 333 ft


LIPL - Ghedi Brescia (Mil)

DERNIER METAR :
  • 022055Z 35003KT CAVOK 20/15 Q1010 RMK FEW FEW150 VIS MIN 9999 WIND THR31 34003KT WIND THR13 35004KT BLU

METARs EXPIRÉS :
  • 021955Z 35004KT 9999 FEW030CB 21/15 Q1009 RMK SCT SCT150 VIS MIN 9999 WIND THR31 34003KT WIND THR13 34004KT BLU

TAF TAF LIPL
Valide du 02 à 21h jusqu'au 03 à 06h UTC


022000Z 0221/0306 03003KT 9999 SCT030 SCT060
PROB30
TEMPO 0221/0306 5000 RA BR BKN030



MET'MAP, la Météo Aéronautique d'un coup d'oeil ! - Copyright ORBIFLY Décembre 2007 - Disclaimer

ORBIFLY MET'MAP TEAM :

Programmation & Développement : Alexandra Zaïnal
Sur une idée originale de : Baudouin d'Aumeries
Assistance à la programmation : Marc-Olivier Méhu
Soutien technique & logistique : Manuel Goepfert

Contact : metmap@orbifly.com




SOURCES & CREDITS :

   NOAA